BAW816 EGLL-EKCH

Flight info

Callsign BAW816
Flight time N/A
Altitude 39000
Route BPK Q295 SOMVA DCT MAVAS DCT ROCZO DCT DOSUR P729 TUDLO
Aircraft A320/M-L/LB1

Departure

Time 2026-05-05 09:09
Airport London Heathrow Airport (EGLL)

Arrival

Time N/A
Airport Copenhagen Kastrup Airport (EKCH)
Time Latitude Longitude Altitude Speed Heading
2026-05-05 08:53 51.46925 -0.48575 85 ft 0 kts 360°
2026-05-05 09:02 51.46922 -0.48575 85 ft 3 kts 360°
2026-05-05 09:02 51.46901 -0.48575 85 ft 4 kts
2026-05-05 09:02 51.46880 -0.48590 87 ft 4 kts 64°
2026-05-05 09:02 51.46876 -0.48622 85 ft 1 kts 90°
2026-05-05 09:04 51.46876 -0.48620 85 ft 1 kts 89°
2026-05-05 09:05 51.46878 -0.48560 85 ft 7 kts 89°
2026-05-05 09:05 51.46868 -0.48477 86 ft 8 kts 144°
2026-05-05 09:05 51.46788 -0.48471 85 ft 13 kts 179°
2026-05-05 09:05 51.46689 -0.48470 86 ft 15 kts 180°
2026-05-05 09:06 51.46618 -0.48470 89 ft 8 kts 180°
2026-05-05 09:06 51.46591 -0.48469 89 ft 1 kts 180°
2026-05-05 09:06 51.46589 -0.48469 89 ft 0 kts 180°
2026-05-05 09:07 51.46585 -0.48469 89 ft 3 kts 180°
2026-05-05 09:07 51.46525 -0.48469 88 ft 11 kts 179°
2026-05-05 09:07 51.46478 -0.48405 87 ft 9 kts 89°
2026-05-05 09:07 51.46478 -0.48390 89 ft 0 kts 89°
2026-05-05 09:08 51.46478 -0.48345 89 ft 21 kts 90°
2026-05-05 09:08 51.46482 -0.47717 82 ft 88 kts 89°
2026-05-05 09:08 51.46485 -0.46453 88 ft 137 kts 90°
2026-05-05 09:09 51.46490 -0.44717 205 ft 164 kts 88°
2026-05-05 09:09 51.46481 -0.42954 918 ft 156 kts 88°
2026-05-05 09:09 51.46676 -0.41260 1456 ft 158 kts 61°
2026-05-05 09:09 51.47361 -0.39787 1669 ft 177 kts 47°
2026-05-05 09:10 51.48195 -0.38185 1913 ft 197 kts 48°
2026-05-05 09:10 51.49104 -0.36404 2188 ft 217 kts 49°
2026-05-05 09:10 51.50081 -0.34470 2751 ft 226 kts 50°
2026-05-05 09:10 51.51069 -0.32498 3514 ft 227 kts 50°
2026-05-05 09:11 51.52049 -0.30505 4247 ft 231 kts 55°
2026-05-05 09:11 51.52715 -0.28135 4945 ft 235 kts 70°
2026-05-05 09:11 51.53249 -0.25586 5467 ft 251 kts 70°
2026-05-05 09:11 51.53821 -0.22867 6077 ft 262 kts 70°
2026-05-05 09:12 51.54578 -0.20181 6741 ft 268 kts 50°
2026-05-05 09:12 51.56087 -0.18435 7452 ft 271 kts 19°
2026-05-05 09:12 51.57933 -0.17718 8194 ft 275 kts 12°
2026-05-05 09:12 51.59816 -0.17041 8934 ft 279 kts 11°
2026-05-05 09:13 51.61732 -0.16389 9719 ft 283 kts 11°
2026-05-05 09:13 51.63669 -0.15685 10309 ft 292 kts 12°
2026-05-05 09:13 51.65722 -0.14872 10457 ft 315 kts 13°
2026-05-05 09:13 51.67907 -0.13971 10731 ft 331 kts 15°
2026-05-05 09:14 51.70082 -0.12644 11278 ft 337 kts 27°
2026-05-05 09:14 51.72071 -0.10610 11909 ft 342 kts 38°
2026-05-05 09:14 51.73752 -0.07931 12561 ft 345 kts 51°
2026-05-05 09:14 51.75027 -0.04648 13188 ft 348 kts 65°
2026-05-05 09:15 51.75782 -0.00919 13854 ft 351 kts 79°
2026-05-05 09:15 51.76128 0.02996 14440 ft 354 kts 82°
2026-05-05 09:15 51.76454 0.06957 14984 ft 357 kts 83°
2026-05-05 09:15 51.76778 0.10947 15520 ft 360 kts 83°
2026-05-05 09:16 51.77104 0.14974 16040 ft 364 kts 83°
2026-05-05 09:16 51.77437 0.19055 16561 ft 368 kts 83°
2026-05-05 09:16 51.77774 0.23163 17097 ft 371 kts 83°
2026-05-05 09:16 51.78113 0.27315 17626 ft 375 kts 83°
2026-05-05 09:17 51.78452 0.31509 18160 ft 379 kts 84°
2026-05-05 09:17 51.78794 0.35740 18651 ft 382 kts 83°
2026-05-05 09:17 51.79137 0.40012 19149 ft 385 kts 84°
2026-05-05 09:17 51.79481 0.44314 19650 ft 388 kts 84°
2026-05-05 09:18 51.79822 0.48662 20163 ft 391 kts 85°
2026-05-05 09:18 51.80164 0.53039 20652 ft 394 kts 85°
2026-05-05 09:18 51.80507 0.57445 21142 ft 397 kts 84°
2026-05-05 09:18 51.80855 0.61879 21626 ft 400 kts 83°
2026-05-05 09:19 51.81458 0.66245 22010 ft 407 kts 73°
2026-05-05 09:19 51.82505 0.70524 22445 ft 411 kts 68°
2026-05-05 09:19 51.83623 0.74795 22887 ft 414 kts 69°
2026-05-05 09:19 51.84745 0.79115 23331 ft 417 kts 69°
2026-05-05 09:20 51.85867 0.83465 23734 ft 420 kts 69°
2026-05-05 09:20 51.86994 0.87849 24089 ft 423 kts 69°
2026-05-05 09:20 51.88129 0.92271 24436 ft 426 kts 69°
2026-05-05 09:20 51.89271 0.96716 24777 ft 429 kts 69°
2026-05-05 09:21 51.90422 1.01202 25088 ft 433 kts 69°
2026-05-05 09:21 51.91580 1.05727 25409 ft 436 kts 69°
2026-05-05 09:21 51.92725 1.10219 25722 ft 439 kts 69°
2026-05-05 09:21 51.93893 1.14805 26051 ft 441 kts 69°
2026-05-05 09:22 51.95070 1.19423 26369 ft 444 kts 69°
2026-05-05 09:22 51.96252 1.24073 26681 ft 447 kts 69°
2026-05-05 09:22 51.97436 1.28749 26997 ft 449 kts 69°
2026-05-05 09:22 51.98624 1.33453 27308 ft 452 kts 69°
2026-05-05 09:23 51.99818 1.38191 27615 ft 455 kts 69°
2026-05-05 09:23 52.01017 1.42956 27913 ft 457 kts 69°
2026-05-05 09:23 52.02220 1.47752 28220 ft 460 kts 69°
2026-05-05 09:23 52.03429 1.52577 28520 ft 462 kts 69°
2026-05-05 09:24 52.04646 1.57430 28803 ft 465 kts 68°
2026-05-05 09:24 52.05864 1.62296 29202 ft 465 kts 68°
2026-05-05 09:24 52.07079 1.67165 29632 ft 465 kts 68°
2026-05-05 09:24 52.08289 1.72044 30050 ft 464 kts 68°
2026-05-05 09:25 52.09492 1.76916 30441 ft 464 kts 68°
2026-05-05 09:25 52.10692 1.81777 30831 ft 463 kts 68°
2026-05-05 09:25 52.11889 1.86630 30970 ft 461 kts 68°
2026-05-05 09:26 52.14271 1.96310 30991 ft 460 kts 69°
2026-05-05 09:26 52.15456 2.01149 31191 ft 460 kts 68°
2026-05-05 09:26 52.16623 2.05915 31630 ft 458 kts 69°
2026-05-05 09:26 52.17799 2.10722 32087 ft 456 kts 69°
2026-05-05 09:27 52.18967 2.15508 32536 ft 454 kts 69°
2026-05-05 09:27 52.20129 2.20287 32980 ft 451 kts 69°
2026-05-05 09:27 52.21281 2.25039 33427 ft 449 kts 69°
2026-05-05 09:27 52.22426 2.29766 33859 ft 447 kts 69°
2026-05-05 09:28 52.23566 2.34475 34224 ft 446 kts 69°
2026-05-05 09:28 52.24701 2.39176 34517 ft 445 kts 70°
2026-05-05 09:28 52.25832 2.43872 34786 ft 445 kts 70°
2026-05-05 09:28 52.26962 2.48579 35014 ft 446 kts 70°
2026-05-05 09:29 52.28091 2.53312 35193 ft 448 kts 70°
2026-05-05 09:29 52.29217 2.58051 35425 ft 448 kts 70°
2026-05-05 09:29 52.30345 2.62804 35640 ft 448 kts 70°
2026-05-05 09:29 52.31300 2.67646 35882 ft 447 kts 75°
2026-05-05 09:30 52.32157 2.72533 36121 ft 447 kts 75°
2026-05-05 09:30 52.33015 2.77426 36330 ft 448 kts 75°
2026-05-05 09:30 52.33872 2.82317 36548 ft 448 kts 75°
2026-05-05 09:30 52.34733 2.87204 36767 ft 448 kts 75°
2026-05-05 09:31 52.35584 2.92042 36973 ft 448 kts 75°
2026-05-05 09:31 52.36441 2.96930 37177 ft 447 kts 75°
2026-05-05 09:31 52.37296 3.01828 37347 ft 448 kts 75°
2026-05-05 09:31 52.38149 3.06743 37534 ft 448 kts 75°
2026-05-05 09:32 52.38998 3.11654 37722 ft 448 kts 75°
2026-05-05 09:32 52.40066 3.16446 37903 ft 448 kts 65°
2026-05-05 09:32 52.41574 3.20907 38077 ft 449 kts 56°
2026-05-05 09:32 52.43312 3.25153 38239 ft 449 kts 56°
2026-05-05 09:33 52.45046 3.29410 38409 ft 449 kts 56°
2026-05-05 09:33 52.46770 3.33671 38571 ft 449 kts 57°
2026-05-05 09:33 52.48491 3.37948 38717 ft 449 kts 56°
2026-05-05 09:33 52.50208 3.42225 38829 ft 449 kts 56°
2026-05-05 09:34 52.51924 3.46495 38946 ft 448 kts 56°
2026-05-05 09:34 52.55378 3.55092 38995 ft 454 kts 56°
2026-05-05 09:35 52.58870 3.63818 38989 ft 459 kts 56°
2026-05-05 09:35 52.64098 3.76974 38989 ft 460 kts 57°
2026-05-05 09:36 52.67600 3.85815 38987 ft 460 kts 57°
2026-05-05 09:36 52.71103 3.94673 39010 ft 461 kts 56°
2026-05-05 09:37 52.74599 4.03555 38993 ft 462 kts 57°
2026-05-05 09:37 52.78087 4.12469 38997 ft 462 kts 57°
2026-05-05 09:38 52.81576 4.21388 39004 ft 462 kts 57°
2026-05-05 09:38 52.85062 4.30321 39005 ft 462 kts 57°
2026-05-05 09:39 52.88538 4.39274 39011 ft 462 kts 57°
2026-05-05 09:39 52.91979 4.48180 39014 ft 462 kts 57°
2026-05-05 09:40 52.95437 4.57144 39022 ft 462 kts 57°
2026-05-05 09:40 52.98887 4.66135 39020 ft 461 kts 57°
2026-05-05 09:41 53.02321 4.75136 38996 ft 461 kts 57°
2026-05-05 09:41 53.05760 4.84128 38999 ft 461 kts 57°
2026-05-05 09:42 53.09192 4.93133 39021 ft 461 kts 57°
2026-05-05 09:42 53.12610 5.02166 39022 ft 461 kts 57°
2026-05-05 09:43 53.16011 5.11208 39028 ft 461 kts 57°
2026-05-05 09:43 53.19420 5.20262 39022 ft 461 kts 57°
2026-05-05 09:44 53.22797 5.29275 39018 ft 461 kts 57°
2026-05-05 09:44 53.26185 5.38363 39018 ft 461 kts 57°
2026-05-05 09:45 53.29562 5.47468 39017 ft 461 kts 57°
2026-05-05 09:45 53.32937 5.56575 39017 ft 461 kts 57°
2026-05-05 09:46 53.36311 5.65701 39000 ft 461 kts 57°
2026-05-05 09:46 53.39680 5.74845 38995 ft 461 kts 58°
2026-05-05 09:47 53.43030 5.83991 39000 ft 460 kts 58°
2026-05-05 09:47 53.45808 5.91606 39012 ft 460 kts 58°
2026-05-05 09:48 53.49146 6.00775 39008 ft 460 kts 58°
2026-05-05 09:48 53.52480 6.09952 39009 ft 460 kts 58°
2026-05-05 09:49 53.55803 6.19153 39008 ft 460 kts 58°
2026-05-05 09:49 53.59119 6.28371 39016 ft 460 kts 58°
2026-05-05 09:50 53.62429 6.37606 39011 ft 461 kts 58°
2026-05-05 09:50 53.65736 6.46848 39007 ft 461 kts 58°
2026-05-05 09:51 53.69033 6.56120 39012 ft 461 kts 58°
2026-05-05 09:51 53.72321 6.65395 39012 ft 460 kts 58°
2026-05-05 09:52 53.75607 6.74697 39014 ft 460 kts 58°
2026-05-05 09:52 53.78883 6.84002 39008 ft 460 kts 58°
2026-05-05 09:53 53.82147 6.93311 39015 ft 460 kts 58°
2026-05-05 09:53 53.85410 7.02655 39015 ft 461 kts 58°
2026-05-05 09:54 53.88658 7.12005 39013 ft 460 kts 58°
2026-05-05 09:54 53.91912 7.21366 39007 ft 460 kts 58°
2026-05-05 09:55 53.95131 7.30681 39012 ft 460 kts 59°
2026-05-05 09:55 53.98362 7.40072 39005 ft 460 kts 59°
2026-05-05 09:56 54.01588 7.49474 39022 ft 461 kts 59°
2026-05-05 09:56 54.04813 7.58918 39015 ft 461 kts 59°
2026-05-05 09:57 54.08025 7.68375 39008 ft 462 kts 59°
2026-05-05 09:57 54.11231 7.77858 39007 ft 462 kts 59°
2026-05-05 09:58 54.14433 7.87361 39004 ft 462 kts 59°
2026-05-05 09:58 54.18310 7.96011 39003 ft 458 kts 44°
2026-05-05 09:59 54.22742 8.03857 38996 ft 459 kts 44°
2026-05-05 09:59 54.27132 8.11721 38992 ft 460 kts 44°
2026-05-05 10:00 54.31548 8.19684 38990 ft 461 kts 44°
2026-05-05 10:00 54.35971 8.27647 38992 ft 462 kts 44°
2026-05-05 10:01 54.40408 8.35655 38987 ft 462 kts 45°
2026-05-05 10:01 54.44812 8.43649 38990 ft 462 kts 45°
2026-05-05 10:02 54.49240 8.51707 39002 ft 463 kts 44°
2026-05-05 10:02 54.53665 8.59774 38995 ft 463 kts 45°
2026-05-05 10:03 54.58083 8.67862 38980 ft 463 kts 45°
2026-05-05 10:03 54.62466 8.75921 38984 ft 464 kts 45°
2026-05-05 10:04 54.66888 8.84085 38994 ft 464 kts 45°
2026-05-05 10:04 54.71292 8.92250 39004 ft 464 kts 45°
2026-05-05 10:05 54.75665 9.00380 38993 ft 465 kts 45°
2026-05-05 10:05 54.80072 9.08576 38995 ft 465 kts 45°
2026-05-05 10:06 54.84479 9.16810 38980 ft 465 kts 45°
2026-05-05 10:06 54.88845 9.25115 38985 ft 466 kts 46°
2026-05-05 10:07 54.93121 9.33595 38769 ft 467 kts 47°
2026-05-05 10:07 54.95257 9.37871 38481 ft 465 kts 47°
2026-05-05 10:07 54.97376 9.42104 37942 ft 463 kts 47°
2026-05-05 10:08 54.99495 9.46325 37478 ft 461 kts 47°
2026-05-05 10:08 55.01577 9.50462 37013 ft 459 kts 47°
2026-05-05 10:08 55.03678 9.54634 36525 ft 457 kts 47°
2026-05-05 10:08 55.05767 9.58795 36044 ft 455 kts 47°
2026-05-05 10:09 55.07850 9.62957 35547 ft 454 kts 48°
2026-05-05 10:09 55.09733 9.67382 35045 ft 454 kts 57°
2026-05-05 10:09 55.11213 9.72256 34549 ft 454 kts 66°
2026-05-05 10:09 55.12277 9.77433 34068 ft 453 kts 72°
2026-05-05 10:10 55.13212 9.82678 33538 ft 451 kts 72°
2026-05-05 10:10 55.14142 9.87886 33054 ft 447 kts 72°
2026-05-05 10:10 55.15065 9.93065 32558 ft 444 kts 72°
2026-05-05 10:10 55.15981 9.98203 32078 ft 441 kts 72°
2026-05-05 10:11 55.16894 10.03323 31591 ft 439 kts 72°
2026-05-05 10:11 55.17796 10.08410 31109 ft 437 kts 72°
2026-05-05 10:11 55.18691 10.13482 30619 ft 435 kts 73°
2026-05-05 10:11 55.19581 10.18543 30146 ft 434 kts 73°
2026-05-05 10:12 55.20467 10.23598 29614 ft 432 kts 73°
2026-05-05 10:12 55.21338 10.28574 29154 ft 429 kts 73°
2026-05-05 10:12 55.22211 10.33571 28686 ft 427 kts 73°
2026-05-05 10:12 55.23076 10.38542 28227 ft 424 kts 73°
2026-05-05 10:13 55.23932 10.43473 27772 ft 422 kts 73°
2026-05-05 10:13 55.24781 10.48382 27341 ft 420 kts 73°
2026-05-05 10:13 55.25625 10.53285 26900 ft 419 kts 73°
2026-05-05 10:13 55.26451 10.58110 26485 ft 417 kts 73°
2026-05-05 10:14 55.27281 10.62977 26068 ft 416 kts 73°
2026-05-05 10:14 55.28108 10.67828 25655 ft 415 kts 73°
2026-05-05 10:14 55.28938 10.72675 25230 ft 414 kts 73°
2026-05-05 10:14 55.29768 10.77500 24801 ft 413 kts 73°
2026-05-05 10:15 55.30599 10.82323 24397 ft 412 kts 73°
2026-05-05 10:15 55.31420 10.87116 23951 ft 412 kts 73°
2026-05-05 10:15 55.32246 10.91972 23485 ft 412 kts 73°
2026-05-05 10:15 55.33056 10.96754 23000 ft 411 kts 73°
2026-05-05 10:16 55.33866 11.01583 22533 ft 409 kts 73°
2026-05-05 10:16 55.34664 11.06374 22071 ft 407 kts 74°
2026-05-05 10:16 55.35456 11.11148 21593 ft 405 kts 74°
2026-05-05 10:16 55.36243 11.15890 21118 ft 403 kts 74°
2026-05-05 10:17 55.37024 11.20617 20656 ft 402 kts 74°
2026-05-05 10:17 55.37798 11.25320 20179 ft 400 kts 74°
2026-05-05 10:17 55.38568 11.30007 19701 ft 399 kts 74°
2026-05-05 10:17 55.39332 11.34685 19224 ft 397 kts 74°
2026-05-05 10:18 55.40083 11.39293 18749 ft 396 kts 74°
2026-05-05 10:18 55.40849 11.44003 18263 ft 393 kts 74°
2026-05-05 10:18 55.41575 11.48489 17754 ft 379 kts 74°
2026-05-05 10:18 55.42283 11.52890 17309 ft 372 kts 74°
2026-05-05 10:19 55.42985 11.57261 16852 ft 371 kts 74°
2026-05-05 10:19 55.43907 11.61429 16560 ft 358 kts 60°
2026-05-05 10:19 55.45272 11.65002 16077 ft 345 kts 46°
2026-05-05 10:19 55.46990 11.67906 15833 ft 342 kts 38°
2026-05-05 10:20 55.48777 11.70675 15470 ft 342 kts 38°
2026-05-05 10:20 55.50559 11.73457 15046 ft 343 kts 38°
2026-05-05 10:20 55.52344 11.76255 14698 ft 341 kts 39°
2026-05-05 10:20 55.54118 11.79049 14257 ft 343 kts 39°
2026-05-05 10:21 55.55884 11.81828 13991 ft 338 kts 39°
2026-05-05 10:21 55.57628 11.84577 13455 ft 334 kts 39°
2026-05-05 10:21 55.59351 11.87300 12849 ft 329 kts 39°
2026-05-05 10:21 55.61044 11.89980 12424 ft 325 kts 39°
2026-05-05 10:22 55.62700 11.92598 12042 ft 322 kts 39°
2026-05-05 10:22 55.64365 11.95229 11945 ft 321 kts 39°
2026-05-05 10:22 55.66038 11.97880 11567 ft 323 kts 39°
2026-05-05 10:22 55.67711 12.00533 11203 ft 322 kts 39°
2026-05-05 10:23 55.69386 12.03186 10867 ft 320 kts 39°
2026-05-05 10:23 55.71039 12.05840 10540 ft 319 kts 43°
2026-05-05 10:23 55.72345 12.08955 10230 ft 320 kts 61°
2026-05-05 10:23 55.73097 12.12649 9910 ft 319 kts 79°
2026-05-05 10:24 55.73207 12.16548 9562 ft 316 kts 97°
2026-05-05 10:24 55.72961 12.20406 9202 ft 314 kts 98°
2026-05-05 10:24 55.72719 12.24240 8901 ft 310 kts 97°
2026-05-05 10:24 55.72488 12.27983 8565 ft 297 kts 97°
2026-05-05 10:25 55.72272 12.31512 8425 ft 278 kts 97°
2026-05-05 10:25 55.72065 12.34863 8100 ft 269 kts 97°
2026-05-05 10:25 55.71859 12.38148 7823 ft 267 kts 97°
2026-05-05 10:25 55.71654 12.41403 7563 ft 265 kts 97°
2026-05-05 10:26 55.71450 12.44638 7280 ft 263 kts 97°
2026-05-05 10:26 55.71271 12.47827 7007 ft 262 kts 92°
2026-05-05 10:26 55.71402 12.51030 6748 ft 260 kts 78°
2026-05-05 10:26 55.71918 12.54048 6590 ft 251 kts 64°
2026-05-05 10:27 55.72686 12.56788 6470 ft 243 kts 61°
2026-05-05 10:27 55.73439 12.59412 6326 ft 236 kts 61°
2026-05-05 10:27 55.74179 12.61994 6072 ft 233 kts 60°
2026-05-05 10:27 55.75057 12.64370 5832 ft 226 kts 48°
2026-05-05 10:28 55.76145 12.66327 5452 ft 223 kts 37°
2026-05-05 10:28 55.77313 12.68137 5091 ft 222 kts 38°
2026-05-05 10:28 55.78461 12.69934 4805 ft 216 kts 38°
2026-05-05 10:28 55.79555 12.71664 4668 ft 205 kts 38°
2026-05-05 10:29 55.80608 12.73332 4451 ft 198 kts 38°
2026-05-05 10:29 55.81619 12.74927 4210 ft 194 kts 38°
2026-05-05 10:29 55.82622 12.76509 4029 ft 191 kts 38°
2026-05-05 10:29 55.83619 12.78082 4001 ft 191 kts 38°